SFR161 FALE-FACT

Flight info

Callsign SFR161
Flight time N/A
Altitude 36000
Route TUBIN1A TUBIN UZ3 ESRUK UQ51 GETEN GETEN1B
Aircraft B738/M-SDE2E3FGHIRWXY/LB1

Departure

Time N/A
Airport King Shaka International Airport (FALE)

Arrival

Time 2026-05-06 12:00
Airport Cape Town International Airport (FACT)
Time Latitude Longitude Altitude Speed Heading
2026-05-06 11:18 -33.10750 22.07013 35881 ft 409 kts 241°
2026-05-06 11:18 -33.11962 22.03938 35893 ft 409 kts 241°
2026-05-06 11:19 -33.14379 21.97794 35914 ft 408 kts 241°
2026-05-06 11:19 -33.16788 21.91662 35890 ft 413 kts 241°
2026-05-06 11:20 -33.19209 21.85485 35906 ft 409 kts 241°
2026-05-06 11:20 -33.21610 21.79346 35902 ft 406 kts 241°
2026-05-06 11:21 -33.23984 21.73267 35921 ft 402 kts 241°
2026-05-06 11:21 -33.26338 21.67231 35934 ft 399 kts 241°
2026-05-06 11:22 -33.28667 21.61250 35965 ft 401 kts 242°
2026-05-06 11:22 -33.31027 21.55178 35934 ft 401 kts 241°
2026-05-06 11:23 -33.33375 21.49122 35978 ft 402 kts 240°
2026-05-06 11:23 -33.35744 21.43009 35973 ft 409 kts 240°
2026-05-06 11:24 -33.38145 21.36800 35968 ft 410 kts 241°
2026-05-06 11:24 -33.40498 21.30682 35979 ft 399 kts 239°
2026-05-06 11:25 -33.42825 21.24646 35984 ft 400 kts 241°
2026-05-06 11:25 -33.45149 21.18599 35987 ft 401 kts 240°
2026-05-06 11:26 -33.47480 21.12523 35971 ft 402 kts 241°
2026-05-06 11:26 -33.49802 21.06462 35994 ft 404 kts 241°
2026-05-06 11:27 -33.52160 21.00294 36033 ft 410 kts 241°
2026-05-06 11:27 -33.54548 20.94037 36021 ft 414 kts 242°
2026-05-06 11:28 -33.56950 20.87727 36021 ft 415 kts 242°
2026-05-06 11:28 -33.59347 20.81413 36028 ft 417 kts 241°
2026-05-06 11:29 -33.61736 20.75114 36019 ft 417 kts 242°
2026-05-06 11:29 -33.64134 20.68779 36025 ft 417 kts 243°
2026-05-06 11:29 -33.65332 20.65609 35784 ft 420 kts 243°
2026-05-06 11:30 -33.66544 20.62403 35342 ft 421 kts 242°
2026-05-06 11:30 -33.67753 20.59198 34790 ft 423 kts 243°
2026-05-06 11:30 -33.68970 20.55971 34254 ft 425 kts 243°
2026-05-06 11:30 -33.70196 20.52714 33574 ft 430 kts 243°
2026-05-06 11:31 -33.71430 20.49435 32943 ft 432 kts 243°
2026-05-06 11:31 -33.72672 20.46130 32309 ft 434 kts 243°
2026-05-06 11:31 -33.73910 20.42829 31856 ft 433 kts 243°
2026-05-06 11:31 -33.75146 20.39532 31403 ft 432 kts 243°
2026-05-06 11:32 -33.76378 20.36240 30931 ft 431 kts 243°
2026-05-06 11:32 -33.77593 20.32994 30484 ft 431 kts 243°
2026-05-06 11:32 -33.78822 20.29708 29977 ft 430 kts 243°
2026-05-06 11:32 -33.80049 20.26423 29454 ft 430 kts 243°
2026-05-06 11:33 -33.81270 20.23149 28943 ft 429 kts 243°
2026-05-06 11:33 -33.82492 20.19873 28442 ft 428 kts 243°
2026-05-06 11:33 -33.83707 20.16610 27926 ft 427 kts 243°
2026-05-06 11:33 -33.84917 20.13357 27420 ft 423 kts 243°
2026-05-06 11:34 -33.86105 20.10159 26968 ft 414 kts 244°
2026-05-06 11:34 -33.87268 20.07023 26494 ft 406 kts 244°
2026-05-06 11:34 -33.88024 20.04985 26192 ft 400 kts 243°
2026-05-06 11:34 -33.89512 20.00969 25467 ft 391 kts 244°
2026-05-06 11:35 -33.90609 19.98006 25015 ft 383 kts 243°
2026-05-06 11:35 -33.91336 19.96043 24715 ft 378 kts 243°
2026-05-06 11:35 -33.92383 19.93213 24284 ft 370 kts 243°
2026-05-06 11:35 -33.93420 19.90404 23856 ft 363 kts 243°
2026-05-06 11:36 -33.94435 19.87657 23394 ft 357 kts 243°
2026-05-06 11:36 -33.95436 19.84944 22911 ft 350 kts 243°
2026-05-06 11:36 -33.96412 19.82294 22482 ft 342 kts 243°
2026-05-06 11:36 -33.97387 19.79719 22072 ft 334 kts 240°
2026-05-06 11:37 -33.98432 19.77233 21710 ft 332 kts 239°
2026-05-06 11:37 -33.99503 19.74766 21303 ft 332 kts 239°
2026-05-06 11:37 -34.00575 19.72298 20930 ft 332 kts 239°
2026-05-06 11:37 -34.01645 19.69817 20520 ft 335 kts 239°
2026-05-06 11:38 -34.02719 19.67310 20092 ft 337 kts 239°
2026-05-06 11:38 -34.03788 19.64802 19695 ft 336 kts 239°
2026-05-06 11:38 -34.04841 19.62322 19299 ft 337 kts 240°
2026-05-06 11:38 -34.05547 19.59619 18866 ft 344 kts 260°
2026-05-06 11:39 -34.05509 19.56720 18490 ft 348 kts 271°
2026-05-06 11:39 -34.05266 19.53800 17997 ft 349 kts 272°
2026-05-06 11:39 -34.04990 19.50912 17550 ft 343 kts 272°
2026-05-06 11:39 -34.04718 19.48073 17128 ft 338 kts 272°
2026-05-06 11:40 -34.04461 19.45280 16710 ft 332 kts 272°
2026-05-06 11:40 -34.04217 19.42533 16309 ft 327 kts 272°
2026-05-06 11:40 -34.03981 19.39826 15923 ft 322 kts 271°
2026-05-06 11:40 -34.03752 19.37157 15572 ft 318 kts 271°
2026-05-06 11:41 -34.03526 19.34505 15200 ft 317 kts 271°
2026-05-06 11:41 -34.03302 19.31864 14818 ft 317 kts 271°
2026-05-06 11:41 -34.03077 19.29221 14430 ft 316 kts 271°
2026-05-06 11:41 -34.02854 19.26608 14048 ft 314 kts 271°
2026-05-06 11:42 -34.02629 19.23997 13654 ft 311 kts 271°
2026-05-06 11:42 -34.02406 19.21415 13288 ft 307 kts 271°
2026-05-06 11:42 -34.02186 19.18879 12809 ft 306 kts 271°
2026-05-06 11:42 -34.01964 19.16342 12424 ft 302 kts 271°
2026-05-06 11:43 -34.01744 19.13834 12026 ft 299 kts 271°
2026-05-06 11:43 -34.01525 19.11359 11644 ft 294 kts 271°
2026-05-06 11:43 -34.01312 19.08948 11309 ft 290 kts 270°
2026-05-06 11:44 -34.00888 19.04173 10644 ft 282 kts 270°
2026-05-06 11:44 -34.00680 19.01846 10326 ft 274 kts 270°
2026-05-06 11:44 -34.00481 18.99611 10280 ft 261 kts 270°
2026-05-06 11:44 -34.00290 18.97475 10207 ft 253 kts 270°
2026-05-06 11:45 -34.00104 18.95352 9997 ft 260 kts 271°
2026-05-06 11:45 -33.99913 18.93104 9762 ft 279 kts 270°
2026-05-06 11:45 -33.99704 18.90727 9427 ft 288 kts 271°
2026-05-06 11:45 -33.99489 18.88337 9079 ft 293 kts 271°
2026-05-06 11:46 -33.99267 18.85888 8732 ft 294 kts 271°
2026-05-06 11:46 -33.99046 18.83464 8567 ft 286 kts 271°
2026-05-06 11:46 -33.98832 18.81137 8447 ft 274 kts 271°
2026-05-06 11:46 -33.98628 18.78907 8353 ft 261 kts 270°
2026-05-06 11:47 -33.98433 18.76777 8217 ft 250 kts 270°
2026-05-06 11:47 -33.98001 18.74776 8053 ft 251 kts 298°
2026-05-06 11:47 -33.96735 18.73366 7917 ft 250 kts 332°
2026-05-06 11:47 -33.95136 18.72623 7745 ft 243 kts 341°
2026-05-06 11:48 -33.93534 18.72015 7490 ft 239 kts 343°
2026-05-06 11:48 -33.91949 18.71459 7250 ft 234 kts 344°
2026-05-06 11:48 -33.90405 18.70937 7050 ft 226 kts 345°
2026-05-06 11:48 -33.88907 18.70451 6850 ft 221 kts 346°
2026-05-06 11:49 -33.87444 18.69984 6695 ft 219 kts 345°
2026-05-06 11:49 -33.85974 18.69497 6522 ft 219 kts 346°
2026-05-06 11:49 -33.84467 18.69002 6332 ft 241 kts 346°
2026-05-06 11:49 -33.82687 18.68409 6322 ft 281 kts 345°
2026-05-06 11:50 -33.80781 18.67765 6324 ft 284 kts 346°
2026-05-06 11:50 -33.78885 18.67134 6231 ft 279 kts 346°
2026-05-06 11:50 -33.77054 18.66526 6086 ft 268 kts 346°
2026-05-06 11:50 -33.75284 18.65942 5896 ft 259 kts 346°
2026-05-06 11:51 -33.73595 18.65400 5716 ft 250 kts 347°
2026-05-06 11:51 -33.71938 18.64897 5533 ft 240 kts 348°
2026-05-06 11:51 -33.70438 18.64113 5314 ft 234 kts 318°
2026-05-06 11:51 -33.69541 18.62584 5134 ft 219 kts 280°
2026-05-06 11:52 -33.69515 18.60865 4944 ft 197 kts 245°
2026-05-06 11:52 -33.69978 18.59373 4743 ft 186 kts 239°
2026-05-06 11:52 -33.70454 18.57973 4530 ft 182 kts 239°
2026-05-06 11:52 -33.70931 18.56574 4335 ft 181 kts 238°
2026-05-06 11:53 -33.71411 18.55176 4140 ft 181 kts 239°
2026-05-06 11:53 -33.71924 18.53784 3927 ft 182 kts 230°
2026-05-06 11:53 -33.72837 18.52911 3692 ft 162 kts 182°
2026-05-06 11:53 -33.73909 18.53089 3542 ft 156 kts 165°
2026-05-06 11:54 -33.74972 18.53369 3430 ft 155 kts 164°
2026-05-06 11:54 -33.76031 18.53673 3402 ft 157 kts 163°
2026-05-06 11:54 -33.77079 18.53992 3381 ft 153 kts 163°
2026-05-06 11:54 -33.78079 18.54304 3386 ft 142 kts 162°
2026-05-06 11:55 -33.78997 18.54595 3406 ft 139 kts 162°
2026-05-06 11:55 -33.79916 18.54886 3362 ft 130 kts 161°
2026-05-06 11:55 -33.80751 18.55151 3350 ft 122 kts 161°
2026-05-06 11:55 -33.81598 18.55422 3223 ft 127 kts 161°
2026-05-06 11:56 -33.82437 18.55688 3061 ft 120 kts 160°
2026-05-06 11:56 -33.83210 18.55934 2894 ft 112 kts 160°
2026-05-06 11:56 -33.83971 18.56178 2743 ft 113 kts 160°
2026-05-06 11:56 -33.84728 18.56419 2586 ft 112 kts 160°
2026-05-06 11:57 -33.85485 18.56661 2434 ft 114 kts 160°
2026-05-06 11:57 -33.86255 18.56906 2281 ft 117 kts 160°
2026-05-06 11:57 -33.87048 18.57160 2107 ft 118 kts 161°
2026-05-06 11:57 -33.87833 18.57408 1930 ft 116 kts 160°
2026-05-06 11:58 -33.88609 18.57655 1753 ft 116 kts 160°
2026-05-06 11:58 -33.89401 18.57908 1577 ft 118 kts 161°
2026-05-06 11:58 -33.90171 18.58152 1406 ft 112 kts 160°
2026-05-06 11:58 -33.90931 18.58395 1252 ft 111 kts 161°
2026-05-06 11:59 -33.91694 18.58640 1127 ft 124 kts 161°
2026-05-06 11:59 -33.92538 18.58911 922 ft 123 kts 163°
2026-05-06 11:59 -33.93343 18.59176 776 ft 118 kts 164°
2026-05-06 11:59 -33.94144 18.59450 585 ft 120 kts 165°
2026-05-06 12:00 -33.94928 18.59700 406 ft 116 kts 163°
2026-05-06 12:00 -33.95712 18.59930 238 ft 117 kts 162°
2026-05-06 12:00 -33.96449 18.60161 155 ft 88 kts 163°
2026-05-06 12:00 -33.96836 18.60283 156 ft 38 kts 166°
2026-05-06 12:01 -33.97077 18.60354 155 ft 33 kts 165°
2026-05-06 12:01 -33.97289 18.60421 152 ft 30 kts 165°
2026-05-06 12:01 -33.97485 18.60482 151 ft 28 kts 166°
2026-05-06 12:01 -33.97662 18.60538 152 ft 19 kts 165°
2026-05-06 12:02 -33.97758 18.60567 153 ft 14 kts 180°
2026-05-06 12:02 -33.97783 18.60479 153 ft 13 kts 285°
2026-05-06 12:02 -33.97766 18.60401 153 ft 8 kts 284°
2026-05-06 12:02 -33.97753 18.60337 153 ft 7 kts 285°
2026-05-06 12:03 -33.97740 18.60281 153 ft 6 kts 285°
2026-05-06 12:03 -33.97726 18.60222 153 ft 10 kts 289°
2026-05-06 12:03 -33.97666 18.60170 153 ft 12 kts 338°
2026-05-06 12:03 -33.97585 18.60131 153 ft 13 kts 338°
2026-05-06 12:04 -33.97507 18.60089 153 ft 12 kts 339°
2026-05-06 12:04 -33.97427 18.60059 153 ft 12 kts 344°
2026-05-06 12:04 -33.97349 18.60032 153 ft 12 kts 343°
2026-05-06 12:04 -33.97272 18.60007 153 ft 11 kts 346°
2026-05-06 12:05 -33.97197 18.59985 153 ft 11 kts 346°
2026-05-06 12:05 -33.97124 18.59964 153 ft 11 kts 351°
2026-05-06 12:05 -33.97053 18.59951 153 ft 8 kts 343°
2026-05-06 12:05 -33.97027 18.59940 153 ft 4 kts 326°
2026-05-06 12:06 -33.97026 18.59896 153 ft 6 kts 257°
2026-05-06 12:06 -33.97033 18.59858 153 ft 3 kts 256°
2026-05-06 12:06 -33.97035 18.59852 153 ft 0 kts 256°